ALK103 VCBI-VRMM

Flight info

Callsign ALK103
Flight time 1h 13m
Altitude 38000
Route LALUM2D TELIG M512 HOKEY HOKEY1A
Aircraft A20N/M-SDE2E3FGHIRWXY/LB1

Departure

Time 2026-04-21 23:36
Airport Bandaranaike International Colombo Airport (VCBI)

Arrival

Time 2026-04-22 00:50
Airport Velana International Airport (VRMM)
Time Latitude Longitude Altitude Speed Heading
2026-04-21 23:15 7.17615 79.88567 30 ft 0 kts 217°
2026-04-21 23:17 7.17620 79.88571 30 ft 3 kts 217°
2026-04-21 23:17 7.17634 79.88582 30 ft 3 kts 217°
2026-04-21 23:18 7.17649 79.88593 30 ft 3 kts 217°
2026-04-21 23:18 7.17663 79.88604 30 ft 3 kts 217°
2026-04-21 23:18 7.17676 79.88614 30 ft 0 kts 221°
2026-04-21 23:18 7.17683 79.88621 30 ft 3 kts 238°
2026-04-21 23:19 7.17691 79.88637 30 ft 3 kts 262°
2026-04-21 23:19 7.17689 79.88655 30 ft 3 kts 301°
2026-04-21 23:19 7.17687 79.88658 30 ft 0 kts 310°
2026-04-21 23:22 7.17691 79.88654 30 ft 1 kts 310°
2026-04-21 23:22 7.17707 79.88635 30 ft 6 kts 311°
2026-04-21 23:23 7.17741 79.88591 30 ft 9 kts 307°
2026-04-21 23:23 7.17776 79.88545 30 ft 10 kts 307°
2026-04-21 23:23 7.17816 79.88492 30 ft 10 kts 307°
2026-04-21 23:23 7.17858 79.88442 30 ft 9 kts 324°
2026-04-21 23:24 7.17912 79.88449 31 ft 8 kts 31°
2026-04-21 23:24 7.17958 79.88482 30 ft 8 kts 37°
2026-04-21 23:24 7.18003 79.88515 30 ft 8 kts 37°
2026-04-21 23:24 7.18048 79.88550 30 ft 8 kts 38°
2026-04-21 23:25 7.18105 79.88594 30 ft 13 kts 37°
2026-04-21 23:25 7.18196 79.88663 30 ft 19 kts 37°
2026-04-21 23:25 7.18302 79.88744 30 ft 19 kts 38°
2026-04-21 23:25 7.18409 79.88826 30 ft 19 kts 37°
2026-04-21 23:26 7.18515 79.88906 31 ft 19 kts 37°
2026-04-21 23:26 7.18620 79.88987 31 ft 19 kts 36°
2026-04-21 23:26 7.18721 79.89065 31 ft 18 kts 38°
2026-04-21 23:26 7.18818 79.89137 31 ft 17 kts 34°
2026-04-21 23:27 7.18912 79.89205 30 ft 16 kts 41°
2026-04-21 23:27 7.19001 79.89278 30 ft 16 kts 36°
2026-04-21 23:27 7.19091 79.89346 30 ft 16 kts 38°
2026-04-21 23:27 7.19131 79.89377 30 ft 0 kts 37°
2026-04-21 23:28 7.19133 79.89379 30 ft 2 kts 37°
2026-04-21 23:28 7.19161 79.89399 30 ft 7 kts 32°
2026-04-21 23:28 7.19195 79.89405 30 ft 10 kts 350°
2026-04-21 23:28 7.19247 79.89358 30 ft 10 kts 304°
2026-04-21 23:29 7.19269 79.89295 30 ft 9 kts 260°
2026-04-21 23:29 7.19235 79.89243 30 ft 9 kts 230°
2026-04-21 23:29 7.19194 79.89203 31 ft 8 kts 221°
2026-04-21 23:29 7.19147 79.89165 31 ft 12 kts 217°
2026-04-21 23:30 7.19054 79.89093 31 ft 20 kts 217°
2026-04-21 23:30 7.18945 79.89010 32 ft 21 kts 216°
2026-04-21 23:30 7.18817 79.88912 32 ft 26 kts 218°
2026-04-21 23:30 7.18684 79.88871 32 ft 19 kts 144°
2026-04-21 23:31 7.18616 79.88966 31 ft 5 kts 146°
2026-04-21 23:31 7.18585 79.88957 31 ft 7 kts 208°
2026-04-21 23:31 7.18532 79.88919 31 ft 12 kts 217°
2026-04-21 23:31 7.18456 79.88861 31 ft 15 kts 216°
2026-04-21 23:32 7.18362 79.88789 30 ft 18 kts 218°
2026-04-21 23:32 7.18241 79.88697 30 ft 26 kts 217°
2026-04-21 23:32 7.18083 79.88576 30 ft 29 kts 217°
2026-04-21 23:32 7.17923 79.88455 31 ft 28 kts 217°
2026-04-21 23:33 7.17770 79.88338 31 ft 28 kts 217°
2026-04-21 23:33 7.17618 79.88221 31 ft 27 kts 217°
2026-04-21 23:33 7.17467 79.88105 30 ft 27 kts 218°
2026-04-21 23:33 7.17316 79.87991 30 ft 27 kts 217°
2026-04-21 23:34 7.17165 79.87875 30 ft 27 kts 217°
2026-04-21 23:34 7.17015 79.87760 30 ft 27 kts 217°
2026-04-21 23:34 7.16872 79.87651 30 ft 19 kts 217°
2026-04-21 23:34 7.16840 79.87593 31 ft 0 kts 279°
2026-04-21 23:35 7.16840 79.87592 31 ft 1 kts 290°
2026-04-21 23:35 7.16864 79.87556 31 ft 12 kts 303°
2026-04-21 23:35 7.16911 79.87499 32 ft 8 kts 323°
2026-04-21 23:35 7.17001 79.87521 32 ft 34 kts 33°
2026-04-21 23:36 7.17373 79.87809 31 ft 100 kts 37°
2026-04-21 23:36 7.18087 79.88351 33 ft 155 kts 37°
2026-04-21 23:36 7.18994 79.89049 385 ft 165 kts 38°
2026-04-21 23:36 7.19908 79.89716 1004 ft 163 kts 28°
2026-04-21 23:37 7.21012 79.89874 1542 ft 165 kts 348°
2026-04-21 23:37 7.22157 79.89470 1902 ft 193 kts 335°
2026-04-21 23:37 7.23412 79.88689 2125 ft 231 kts 320°
2026-04-21 23:37 7.24588 79.87464 2590 ft 250 kts 307°
2026-04-21 23:38 7.25652 79.86075 3261 ft 249 kts 310°
2026-04-21 23:38 7.26778 79.84741 3785 ft 251 kts 310°
2026-04-21 23:38 7.27903 79.83383 4218 ft 256 kts 309°
2026-04-21 23:38 7.29047 79.81950 4825 ft 265 kts 308°
2026-04-21 23:39 7.30157 79.80499 5809 ft 259 kts 307°
2026-04-21 23:39 7.31245 79.79050 6632 ft 260 kts 309°
2026-04-21 23:39 7.32372 79.77611 7361 ft 263 kts 305°
2026-04-21 23:39 7.33140 79.75937 8093 ft 269 kts 276°
2026-04-21 23:40 7.32922 79.74060 8689 ft 280 kts 241°
2026-04-21 23:40 7.31718 79.72517 9271 ft 288 kts 221°
2026-04-21 23:40 7.30084 79.71220 9600 ft 308 kts 216°
2026-04-21 23:40 7.28332 79.70011 10399 ft 306 kts 214°
2026-04-21 23:41 7.26557 79.68736 10785 ft 322 kts 216°
2026-04-21 23:41 7.24698 79.67353 11001 ft 342 kts 217°
2026-04-21 23:41 7.22746 79.65878 11249 ft 358 kts 217°
2026-04-21 23:41 7.20766 79.64363 11930 ft 358 kts 217°
2026-04-21 23:42 7.18778 79.62844 12591 ft 360 kts 217°
2026-04-21 23:42 7.16678 79.61467 13224 ft 362 kts 205°
2026-04-21 23:42 7.14266 79.60791 13953 ft 360 kts 188°
2026-04-21 23:42 7.11776 79.60431 14521 ft 364 kts 188°
2026-04-21 23:43 7.09252 79.60063 15028 ft 370 kts 188°
2026-04-21 23:43 7.06682 79.59621 15446 ft 378 kts 190°
2026-04-21 23:43 7.04109 79.59131 16163 ft 376 kts 190°
2026-04-21 23:43 7.01528 79.58699 16824 ft 376 kts 188°
2026-04-21 23:44 6.98938 79.58244 17384 ft 380 kts 194°
2026-04-21 23:44 6.96457 79.57271 17720 ft 389 kts 212°
2026-04-21 23:44 6.94380 79.55522 18135 ft 393 kts 228°
2026-04-21 23:44 6.92655 79.53373 18508 ft 397 kts 233°
2026-04-21 23:45 6.90993 79.51144 18946 ft 398 kts 232°
2026-04-21 23:45 6.87503 79.46827 19901 ft 400 kts 231°
2026-04-21 23:45 6.85729 79.44650 20251 ft 404 kts 231°
2026-04-21 23:46 6.83938 79.42453 20635 ft 408 kts 231°
2026-04-21 23:46 6.82122 79.40245 21002 ft 411 kts 230°
2026-04-21 23:46 6.80293 79.38039 21550 ft 409 kts 230°
2026-04-21 23:46 6.78474 79.35862 22214 ft 405 kts 230°
2026-04-21 23:47 6.76644 79.33694 22656 ft 409 kts 230°
2026-04-21 23:47 6.74790 79.31501 23028 ft 413 kts 230°
2026-04-21 23:47 6.72949 79.29317 23408 ft 417 kts 230°
2026-04-21 23:47 6.71087 79.27073 23801 ft 418 kts 230°
2026-04-21 23:48 6.69230 79.24788 24058 ft 423 kts 231°
2026-04-21 23:48 6.67402 79.22506 24701 ft 417 kts 231°
2026-04-21 23:48 6.65596 79.20226 25146 ft 418 kts 231°
2026-04-21 23:48 6.63743 79.17943 25356 ft 425 kts 230°
2026-04-21 23:49 6.61803 79.15667 25628 ft 430 kts 229°
2026-04-21 23:49 6.59908 79.13344 26049 ft 430 kts 230°
2026-04-21 23:49 6.58027 79.11007 26479 ft 430 kts 230°
2026-04-21 23:49 6.56142 79.08670 26914 ft 430 kts 230°
2026-04-21 23:50 6.54244 79.06349 27330 ft 430 kts 230°
2026-04-21 23:50 6.52319 79.04048 27733 ft 430 kts 229°
2026-04-21 23:50 6.50375 79.01745 27924 ft 436 kts 229°
2026-04-21 23:50 6.48393 78.99388 27962 ft 445 kts 229°
2026-04-21 23:51 6.46410 78.97022 28439 ft 443 kts 229°
2026-04-21 23:51 6.44424 78.94649 28742 ft 445 kts 229°
2026-04-21 23:51 6.42425 78.92268 29078 ft 446 kts 229°
2026-04-21 23:51 6.40429 78.89877 29412 ft 447 kts 229°
2026-04-21 23:52 6.38464 78.87452 29739 ft 448 kts 230°
2026-04-21 23:52 6.36510 78.85003 30009 ft 450 kts 230°
2026-04-21 23:52 6.34537 78.82545 30227 ft 453 kts 230°
2026-04-21 23:52 6.32548 78.80084 30425 ft 455 kts 230°
2026-04-21 23:53 6.30535 78.77612 30614 ft 458 kts 229°
2026-04-21 23:53 6.28502 78.75133 30950 ft 456 kts 229°
2026-04-21 23:53 6.26498 78.72695 31552 ft 449 kts 229°
2026-04-21 23:53 6.24527 78.70296 32119 ft 442 kts 229°
2026-04-21 23:54 6.22580 78.67926 32620 ft 438 kts 229°
2026-04-21 23:54 6.20647 78.65573 32968 ft 437 kts 228°
2026-04-21 23:54 6.18703 78.63211 33123 ft 441 kts 228°
2026-04-21 23:54 6.16736 78.60827 33225 ft 445 kts 228°
2026-04-21 23:55 6.14772 78.58451 33329 ft 450 kts 228°
2026-04-21 23:55 6.10728 78.53575 33509 ft 459 kts 228°
2026-04-21 23:55 6.08696 78.51126 34040 ft 450 kts 228°
2026-04-21 23:56 6.06729 78.48715 34565 ft 443 kts 228°
2026-04-21 23:56 6.04813 78.46309 34986 ft 438 kts 229°
2026-04-21 23:56 6.02943 78.43904 35293 ft 437 kts 229°
2026-04-21 23:56 6.01075 78.41480 35408 ft 440 kts 229°
2026-04-21 23:57 5.99190 78.39056 35555 ft 441 kts 229°
2026-04-21 23:57 5.97283 78.36632 35727 ft 442 kts 228°
2026-04-21 23:57 5.95361 78.34217 35913 ft 443 kts 228°
2026-04-21 23:57 5.93424 78.31814 36136 ft 442 kts 227°
2026-04-21 23:58 5.91478 78.29420 36379 ft 441 kts 227°
2026-04-21 23:58 5.89566 78.27017 36620 ft 440 kts 228°
2026-04-21 23:58 5.87675 78.24613 36990 ft 436 kts 228°
2026-04-21 23:58 5.85803 78.22236 37336 ft 432 kts 227°
2026-04-21 23:59 5.83941 78.19882 37634 ft 429 kts 227°
2026-04-21 23:59 5.82084 78.17539 37807 ft 429 kts 227°
2026-04-21 23:59 5.80228 78.15201 37821 ft 426 kts 227°
2026-04-22 00:00 5.76543 78.10564 37822 ft 424 kts 227°
2026-04-22 00:00 5.72862 78.05935 37822 ft 424 kts 227°
2026-04-22 00:01 5.69262 78.01237 37817 ft 427 kts 233°
2026-04-22 00:01 5.66830 77.95754 37828 ft 435 kts 248°
2026-04-22 00:02 5.65063 77.89938 37831 ft 436 kts 249°
2026-04-22 00:02 5.63310 77.84114 37822 ft 436 kts 248°
2026-04-22 00:03 5.61545 77.78293 37819 ft 436 kts 248°
2026-04-22 00:03 5.59776 77.72474 37820 ft 436 kts 248°
2026-04-22 00:04 5.58005 77.66652 37825 ft 436 kts 248°
2026-04-22 00:04 5.56530 77.61811 37824 ft 436 kts 248°
2026-04-22 00:05 5.54757 77.55989 37820 ft 436 kts 248°
2026-04-22 00:05 5.52981 77.50164 37824 ft 436 kts 248°
2026-04-22 00:06 5.51206 77.44341 37823 ft 436 kts 248°
2026-04-22 00:06 5.49429 77.38516 37826 ft 436 kts 248°
2026-04-22 00:07 5.47652 77.32692 37826 ft 436 kts 248°
2026-04-22 00:07 5.45874 77.26868 37824 ft 436 kts 248°
2026-04-22 00:08 5.44096 77.21044 37827 ft 436 kts 248°
2026-04-22 00:08 5.42317 77.15220 37828 ft 437 kts 248°
2026-04-22 00:09 5.40537 77.09394 37825 ft 436 kts 248°
2026-04-22 00:09 5.38757 77.03573 37825 ft 437 kts 248°
2026-04-22 00:10 5.36976 76.97749 37828 ft 437 kts 248°
2026-04-22 00:10 5.35194 76.91924 37824 ft 437 kts 248°
2026-04-22 00:11 5.33412 76.86102 37826 ft 437 kts 248°
2026-04-22 00:11 5.31629 76.80278 37827 ft 437 kts 248°
2026-04-22 00:12 5.29845 76.74452 37826 ft 437 kts 248°
2026-04-22 00:12 5.28074 76.68673 37827 ft 437 kts 248°
2026-04-22 00:13 5.26289 76.62849 37827 ft 437 kts 248°
2026-04-22 00:13 5.24504 76.57024 37829 ft 437 kts 248°
2026-04-22 00:14 5.22718 76.51202 37830 ft 437 kts 248°
2026-04-22 00:14 5.20932 76.45380 37830 ft 437 kts 248°
2026-04-22 00:15 5.19143 76.39551 37830 ft 437 kts 248°
2026-04-22 00:15 5.17354 76.33725 37831 ft 437 kts 248°
2026-04-22 00:16 5.15562 76.27892 37829 ft 437 kts 248°
2026-04-22 00:16 5.13770 76.22059 37832 ft 438 kts 248°
2026-04-22 00:17 5.11976 76.16222 37824 ft 438 kts 248°
2026-04-22 00:17 5.10183 76.10388 37829 ft 438 kts 248°
2026-04-22 00:18 5.08392 76.04551 37828 ft 438 kts 248°
2026-04-22 00:18 5.06600 75.98713 37826 ft 438 kts 248°
2026-04-22 00:19 5.04809 75.92881 37828 ft 438 kts 248°
2026-04-22 00:19 5.03014 75.87041 37831 ft 438 kts 248°
2026-04-22 00:20 5.01219 75.81203 37828 ft 438 kts 248°
2026-04-22 00:20 4.99424 75.75366 37827 ft 438 kts 248°
2026-04-22 00:21 4.97631 75.69535 37828 ft 438 kts 248°
2026-04-22 00:21 4.95619 75.63854 37827 ft 431 kts 238°
2026-04-22 00:22 4.92731 75.58611 37828 ft 429 kts 235°
2026-04-22 00:22 4.89749 75.53427 37827 ft 429 kts 235°
2026-04-22 00:23 4.86773 75.48239 37830 ft 429 kts 235°
2026-04-22 00:23 4.83803 75.43054 37830 ft 429 kts 235°
2026-04-22 00:24 4.80832 75.37862 37830 ft 429 kts 235°
2026-04-22 00:24 4.77864 75.32677 37833 ft 429 kts 235°
2026-04-22 00:25 4.74892 75.27487 37831 ft 429 kts 235°
2026-04-22 00:25 4.71906 75.22275 37833 ft 433 kts 235°
2026-04-22 00:26 4.68907 75.17040 37832 ft 434 kts 235°
2026-04-22 00:26 4.65902 75.11794 37831 ft 434 kts 235°
2026-04-22 00:27 4.62896 75.06546 37790 ft 433 kts 235°
2026-04-22 00:27 4.61394 75.03927 37124 ft 435 kts 235°
2026-04-22 00:27 4.59878 75.01285 36326 ft 440 kts 236°
2026-04-22 00:27 4.58371 74.98657 35646 ft 442 kts 236°
2026-04-22 00:28 4.56816 74.95945 34938 ft 444 kts 236°
2026-04-22 00:28 4.55293 74.93287 34226 ft 448 kts 237°
2026-04-22 00:28 4.53735 74.90570 33428 ft 452 kts 237°
2026-04-22 00:28 4.52164 74.87830 32605 ft 454 kts 237°
2026-04-22 00:29 4.50585 74.85078 31807 ft 457 kts 238°
2026-04-22 00:29 4.49004 74.82320 31239 ft 454 kts 238°
2026-04-22 00:29 4.47440 74.79593 30698 ft 450 kts 238°
2026-04-22 00:29 4.45882 74.76878 30108 ft 448 kts 238°
2026-04-22 00:30 4.44332 74.74176 29464 ft 446 kts 238°
2026-04-22 00:30 4.42791 74.71490 28863 ft 442 kts 238°
2026-04-22 00:30 4.41267 74.68832 28284 ft 438 kts 238°
2026-04-22 00:30 4.39753 74.66195 27702 ft 435 kts 238°
2026-04-22 00:31 4.38251 74.63577 27103 ft 432 kts 238°
2026-04-22 00:31 4.36755 74.60974 26513 ft 430 kts 238°
2026-04-22 00:31 4.35266 74.58383 25925 ft 428 kts 238°
2026-04-22 00:31 4.33787 74.55808 25334 ft 426 kts 238°
2026-04-22 00:32 4.32312 74.53239 24747 ft 424 kts 238°
2026-04-22 00:32 4.30845 74.50686 24165 ft 422 kts 238°
2026-04-22 00:32 4.29384 74.48142 23573 ft 421 kts 238°
2026-04-22 00:32 4.27927 74.45605 22895 ft 420 kts 239°
2026-04-22 00:33 4.26476 74.43079 22247 ft 416 kts 239°
2026-04-22 00:33 4.25038 74.40575 21660 ft 413 kts 239°
2026-04-22 00:33 4.23612 74.38093 21061 ft 409 kts 239°
2026-04-22 00:33 4.22200 74.35636 20476 ft 405 kts 239°
2026-04-22 00:34 4.20801 74.33201 19900 ft 402 kts 239°
2026-04-22 00:34 4.19413 74.30785 19307 ft 399 kts 239°
2026-04-22 00:34 4.18034 74.28386 18725 ft 396 kts 239°
2026-04-22 00:34 4.16661 74.25996 18124 ft 394 kts 239°
2026-04-22 00:35 4.15300 74.23628 17473 ft 391 kts 239°
2026-04-22 00:35 4.13950 74.21278 16880 ft 387 kts 239°
2026-04-22 00:35 4.12617 74.18958 16311 ft 383 kts 239°
2026-04-22 00:35 4.11295 74.16658 15732 ft 379 kts 239°
2026-04-22 00:36 4.09988 74.14384 15176 ft 375 kts 239°
2026-04-22 00:36 4.08693 74.12130 14622 ft 372 kts 239°
2026-04-22 00:36 4.07407 74.09893 14060 ft 369 kts 239°
2026-04-22 00:36 4.06131 74.07673 13493 ft 367 kts 239°
2026-04-22 00:37 4.04863 74.05468 12894 ft 363 kts 239°
2026-04-22 00:37 4.03609 74.03290 12424 ft 357 kts 239°
2026-04-22 00:37 4.02382 74.01156 11949 ft 351 kts 240°
2026-04-22 00:37 4.01167 73.99046 11426 ft 348 kts 240°
2026-04-22 00:38 3.99964 73.96954 10948 ft 344 kts 240°
2026-04-22 00:38 3.98798 73.94928 10798 ft 329 kts 240°
2026-04-22 00:38 3.97680 73.92984 10621 ft 316 kts 240°
2026-04-22 00:38 3.96598 73.91104 10368 ft 308 kts 240°
2026-04-22 00:39 3.95560 73.89248 10000 ft 304 kts 244°
2026-04-22 00:39 3.94936 73.87210 9204 ft 313 kts 263°
2026-04-22 00:39 3.94825 73.84994 8313 ft 324 kts 270°
2026-04-22 00:39 3.94836 73.82705 7376 ft 334 kts 271°
2026-04-22 00:40 3.94860 73.80340 6419 ft 344 kts 270°
2026-04-22 00:40 3.94878 73.77929 5628 ft 346 kts 270°
2026-04-22 00:40 3.94888 73.75556 5246 ft 334 kts 270°
2026-04-22 00:40 3.94894 73.73294 4983 ft 313 kts 270°
2026-04-22 00:41 3.94897 73.71202 4817 ft 289 kts 270°
2026-04-22 00:41 3.94899 73.69268 4680 ft 267 kts 270°
2026-04-22 00:41 3.94901 73.67474 4537 ft 249 kts 270°
2026-04-22 00:41 3.94903 73.65801 4377 ft 232 kts 270°
2026-04-22 00:42 3.94903 73.64256 4264 ft 212 kts 270°
2026-04-22 00:42 3.94902 73.62824 4129 ft 201 kts 270°
2026-04-22 00:42 3.94901 73.61432 4021 ft 201 kts 270°
2026-04-22 00:42 3.94900 73.60064 3995 ft 189 kts 270°
2026-04-22 00:43 3.94898 73.58791 3992 ft 179 kts 270°
2026-04-22 00:43 3.94897 73.57553 4000 ft 178 kts 270°
2026-04-22 00:43 3.94896 73.56310 3998 ft 178 kts 270°
2026-04-22 00:43 3.95024 73.55096 3916 ft 175 kts 285°
2026-04-22 00:44 3.95585 73.54030 3566 ft 174 kts 318°
2026-04-22 00:44 3.96629 73.53449 3298 ft 172 kts 341°
2026-04-22 00:44 3.97788 73.53191 3005 ft 170 kts 355°
2026-04-22 00:44 3.98967 73.53132 2734 ft 169 kts 360°
2026-04-22 00:45 4.00143 73.53126 2468 ft 168 kts
2026-04-22 00:45 4.01312 73.53126 2209 ft 168 kts
2026-04-22 00:45 4.02477 73.53123 2023 ft 167 kts
2026-04-22 00:45 4.03641 73.53117 1998 ft 168 kts
2026-04-22 00:46 4.04806 73.53116 1993 ft 167 kts
2026-04-22 00:46 4.05968 73.53113 1992 ft 167 kts
2026-04-22 00:46 4.07113 73.53107 1994 ft 167 kts
2026-04-22 00:46 4.08273 73.53121 1995 ft 167 kts 359°
2026-04-22 00:47 4.09382 73.53110 1962 ft 148 kts
2026-04-22 00:47 4.10358 73.53110 1956 ft 135 kts
2026-04-22 00:47 4.11307 73.53110 1604 ft 140 kts
2026-04-22 00:47 4.12294 73.53110 1212 ft 141 kts
2026-04-22 00:48 4.13239 73.53116 1034 ft 131 kts 359°
2026-04-22 00:48 4.14164 73.53114 811 ft 131 kts 359°
2026-04-22 00:48 4.15088 73.53102 679 ft 137 kts 359°
2026-04-22 00:48 4.16028 73.53094 477 ft 132 kts
2026-04-22 00:49 4.16948 73.53119 325 ft 132 kts 358°
2026-04-22 00:49 4.17867 73.53109 184 ft 132 kts
2026-04-22 00:49 4.18778 73.53108 39 ft 129 kts 359°
2026-04-22 00:49 4.19610 73.53104 16 ft 105 kts 359°
2026-04-22 00:50 4.20244 73.53102 15 ft 70 kts 360°
2026-04-22 00:50 4.20561 73.53099 15 ft 40 kts 360°
2026-04-22 00:50 4.20823 73.53100 15 ft 28 kts 358°
2026-04-22 00:50 4.20929 73.53044 15 ft 17 kts 273°
2026-04-22 00:51 4.20929 73.53027 15 ft 0 kts 271°
2026-04-22 00:52 4.20930 73.53024 15 ft 2 kts 272°
2026-04-22 00:52 4.20930 73.52994 15 ft 7 kts 268°
2026-04-22 00:52 4.20922 73.52939 15 ft 8 kts 244°
2026-04-22 00:53 4.20875 73.52908 15 ft 11 kts 201°
2026-04-22 00:53 4.20779 73.52889 15 ft 17 kts 181°
2026-04-22 00:53 4.20659 73.52891 15 ft 18 kts 177°
2026-04-22 00:53 4.20545 73.52901 15 ft 8 kts 178°
2026-04-22 00:54 4.20487 73.52894 15 ft 9 kts 184°
2026-04-22 00:54 4.20406 73.52895 17 ft 13 kts 178°
2026-04-22 00:54 4.20316 73.52897 15 ft 13 kts 180°
2026-04-22 00:54 4.20218 73.52898 15 ft 17 kts 180°
2026-04-22 00:55 4.20088 73.52900 15 ft 19 kts 177°
2026-04-22 00:55 4.19952 73.52902 15 ft 20 kts 179°
2026-04-22 00:55 4.19677 73.52906 15 ft 20 kts 179°
2026-04-22 00:56 4.19536 73.52909 15 ft 20 kts 179°
2026-04-22 00:56 4.19394 73.52911 15 ft 21 kts 178°
2026-04-22 00:56 4.19249 73.52914 15 ft 21 kts 178°
2026-04-22 00:56 4.19109 73.52917 17 ft 19 kts 177°
2026-04-22 00:57 4.19043 73.52891 15 ft 8 kts 251°
2026-04-22 00:57 4.19013 73.52852 15 ft 8 kts 195°
2026-04-22 00:57 4.18942 73.52850 15 ft 13 kts 179°
2026-04-22 00:57 4.18878 73.52841 15 ft 7 kts 231°
2026-04-22 00:58 4.18873 73.52801 17 ft 0 kts 270°
2026-04-22 00:58 4.18873 73.52800 17 ft 0 kts 269°
2026-04-22 00:58 4.18873 73.52796 17 ft 2 kts 269°
2026-04-22 00:58 4.18873 73.52789 15 ft 1 kts 269°